Wind_Speed
29 29 29 29 30 30 30 30 31 32 32 33 33 33 33 33 34 35 35 33 31 29 27 28 27 26 26 25 24 24 23 22 22 23 23 23 24 24 25 27 28 29 30 30 30 30 29 29 27 26 24 22 21 19 17 16 14 13 11 10 10 9 7 6 5 3 2 3 2 1 2 3 4 6 6 6 6 6 6 7 6 6 5 4 3 3 4 4
29 29 29 29 30 30 29 30 30 32 32 32 33 32 32 32 33 34 34 33 31 29 28 27 27 27 26 25 25 24 23 22 23 24 24 24 25 26 26 27 28 29 30 30 29 28 28 27 26 25 24 22 21 20 18 17 16 14 13 11 10 8 6 6 6 4 2 4 2 1 2 2 3 4 6 5 6 7 7 7 7 6 6 5 5 5 5 5
30 29 29 29 30 30 30 30 30 31 32 32 31 30 30 30 32 33 33 32 31 29 28 27 27 28 27 26 25 23 23 23 23 24 25 25 25 26 28 28 28 28 29 29 28 28 27 27 25 24 24 22 21 20 19 18 17 15 14 12 10 8 6 5 6 5 3 4 2 1 3 2 1 3 4 5 6 7 7 7 7 7 8 8 8 7 6 6
30 29 29 28 29 30 30 30 30 31 31 31 30 29 29 30 31 33 33 32 30 29 28 28 28 28 27 26 24 23 23 23 23 24 25 26 26 26 27 27 28 28 28 28 27 27 27 26 25 24 23 22 22 21 20 19 18 16 15 13 11 9 7 5 7 7 5 4 1 2 4 3 1 1 3 4 4 5 7 8 8 9 10 10 9 9 8 7
29 29 28 28 29 29 30 30 30 31 30 30 29 29 29 30 31 32 32 31 30 29 29 29 29 29 27 26 24 24 24 23 23 24 24 25 27 27 27 26 27 27 27 26 26 26 25 25 24 23 23 23 22 22 21 20 19 17 16 15 12 11 8 7 7 8 6 5 3 4 5 4 3 2 2 3 3 5 8 9 9 10 11 11 11 11 10 9
29 28 28 28 28 29 30 30 30 30 30 30 29 29 29 30 32 33 31 30 29 29 29 29 29 29 27 26 26 26 25 21 23 25 24 25 25 26 26 27 27 26 26 26 26 25 24 24 23 23 23 23 23 22 22 21 21 18 17 16 14 13 11 9 9 9 9 7 6 5 6 6 4 3 3 2 3 6 7 7 8 9 10 11 11 10 10 10
29 28 27 28 28 29 30 30 30 30 30 30 30 30 30 31 33 32 30 29 30 30 30 30 29 28 27 28 27 27 25 20 22 24 23 24 24 24 25 26 27 26 26 26 26 25 24 24 23 23 22 22 23 23 23 22 21 19 17 16 15 14 13 12 12 11 10 8 7 7 7 8 7 5 2 1 5 6 6 7 8 8 9 9 9 9 9 10
29 28 27 27 28 28 30 31 31 30 30 30 30 30 30 32 32 31 30 30 30 30 30 30 29 28 27 28 27 26 24 19 20 23 22 24 24 24 24 24 25 25 25 25 25 25 24 23 23 22 22 23 23 23 23 22 21 20 18 17 16 15 15 15 14 13 11 9 9 8 9 9 9 7 2 3 7 6 6 7 7 7 8 8 8 9 9 10
29 27 27 27 27 28 30 31 31 30 30 30 30 29 30 32 32 30 31 31 31 30 30 29 29 28 27 27 26 25 24 19 20 23 22 23 23 24 25 24 24 24 24 24 24 24 24 23 22 22 22 23 23 23 23 22 21 21 19 17 16 16 16 16 16 14 13 11 10 10 10 10 9 7 4 6 8 6 6 6 6 6 6 7 8 8 9 10
29 28 27 27 27 27 29 30 31 31 30 31 30 29 30 31 31 31 32 32 31 30 29 29 29 28 27 26 25 24 24 20 20 23 23 23 23 23 24 23 24 23 23 24 24 24 23 23 22 22 22 22 22 22 22 21 20 19 19 18 16 16 16 16 16 16 14 13 12 11 11 11 10 7 5 8 8 6 5 6 6 6 6 8 8 8 8 9
30 29 28 27 27 27 29 31 31 31 30 30 30 29 30 31 31 31 33 32 31 29 29 29 28 27 26 26 24 22 23 21 19 23 24 23 23 23 24 23 23 23 23 23 23 23 22 22 22 22 21 21 21 20 20 21 20 18 18 18 16 15 15 16 16 16 15 14 13 13 12 11 10 7 6 9 8 6 6 6 7 7 8 8 8 8 8 8
31 29 28 27 27 26 28 30 31 31 31 30 30 29 30 31 32 32 32 31 30 29 28 29 28 27 26 24 22 21 22 21 19 23 24 24 24 24 24 24 23 23 22 22 22 22 22 22 22 21 20 20 20 19 18 20 20 18 17 17 17 16 16 17 17 16 15 14 13 13 13 12 9 7 9 10 8 6 6 6 7 8 8 9 9 9 8 9
31 29 28 27 27 26 27 29 31 31 31 30 29 29 30 31 32 31 31 30 29 28 27 28 28 26 25 23 21 22 22 21 20 23 25 25 25 24 24 25 24 23 23 23 22 22 22 22 21 21 19 18 19 18 17 20 20 18 17 17 17 17 17 17 16 15 14 14 14 13 14 12 8 8 11 10 8 6 6 6 7 9 9 10 10 10 10 11
32 30 28 28 27 26 27 29 30 31 31 30 30 30 30 31 30 29 29 29 28 27 27 28 27 26 25 22 22 23 22 22 22 24 25 26 26 25 25 25 24 24 24 23 23 22 22 21 20 21 19 18 19 18 15 17 20 19 17 16 18 18 18 18 17 16 15 15 14 14 15 14 10 9 9 9 8 7 7 8 9 10 10 11 11 10 11 11
32 31 29 28 27 27 28 29 30 31 31 31 31 30 30 29 28 28 28 27 27 27 27 27 27 26 24 23 23 24 23 22 23 25 26 26 26 26 26 26 25 24 24 23 23 23 22 21 21 21 20 18 19 19 15 15 18 19 17 16 18 19 17 16 16 16 16 15 15 14 14 13 12 12 10 8 8 7 8 9 9 9 10 11 11 10 10 11
33 32 31 29 28 28 28 29 30 31 31 30 30 30 29 28 27 27 27 26 27 27 27 27 27 26 25 23 24 25 24 23 24 26 27 27 26 26 26 26 26 25 24 23 23 23 22 22 22 22 21 19 19 19 15 13 16 19 19 18 18 18 17 15 14 15 15 15 16 15 14 11 10 12 12 12 10 9 10 10 10 10 10 11 11 11 11 11
33 32 31 30 29 29 29 29 30 31 31 30 30 29 28 27 26 26 26 26 27 27 27 26 26 26 24 24 26 27 26 23 24 27 28 27 27 26 26 26 26 26 25 24 23 23 23 22 23 23 23 21 19 19 17 16 18 19 20 20 17 16 16 16 14 14 15 16 15 16 17 14 11 11 12 14 14 13 12 11 11 11 10 10 10 10 10 10
32 32 31 31 30 29 29 29 30 31 31 31 30 30 28 27 27 27 26 27 27 27 27 27 28 26 24 26 28 28 27 25 24 27 28 28 28 27 27 25 25 26 25 25 24 24 24 23 23 22 23 23 22 22 21 19 18 18 18 18 17 15 16 16 15 14 14 16 16 17 18 15 13 14 13 13 16 16 15 14 12 11 10 9 9 10 9 10
32 31 30 31 31 30 30 30 30 31 32 32 32 31 29 28 27 27 27 28 28 29 29 30 32 30 24 26 28 27 28 27 24 26 28 29 29 28 27 26 25 25 25 26 25 25 25 24 24 25 26 25 23 23 22 18 15 13 14 14 14 14 15 14 14 15 14 15 16 17 19 17 15 17 16 15 16 17 16 15 13 12 11 10 11 11 11 11
31 31 30 31 32 31 31 30 31 31 32 33 33 33 33 32 31 30 30 29 29 30 31 31 33 31 22 22 27 28 29 29 26 26 27 28 29 28 28 27 26 26 25 25 25 25 25 26 28 28 26 23 21 20 19 18 15 13 12 13 13 13 13 13 14 15 15 14 15 16 19 19 16 16 16 16 19 20 18 17 15 15 14 13 13 12 12 11
31 31 30 31 32 33 32 32 32 32 32 33 34 34 34 34 34 34 33 32 31 30 31 30 31 32 22 17 25 29 29 31 28 26 26 27 29 29 28 28 27 28 26 25 25 24 25 27 26 23 21 19 19 19 18 18 18 16 13 12 14 14 13 14 13 14 14 15 15 16 20 20 17 16 16 17 20 21 19 19 18 17 16 15 14 12 12 12
32 31 31 30 32 33 34 34 33 33 33 33 34 34 33 32 31 30 30 30 31 30 30 29 28 32 24 15 23 30 30 32 31 29 27 26 28 29 29 29 28 27 27 26 26 25 26 26 23 20 20 20 20 20 19 19 18 16 13 12 14 14 13 13 13 14 14 15 15 17 21 21 19 18 17 18 21 21 20 20 18 17 16 15 14 13 12 13
33 32 31 30 31 33 34 35 34 34 34 33 34 34 32 31 29 26 26 27 28 28 29 28 26 29 27 17 20 29 31 31 32 32 30 28 28 28 28 28 28 27 27 27 26 27 26 23 21 21 22 21 21 21 20 19 18 15 13 13 14 14 12 12 12 12 13 13 14 17 21 22 19 18 17 17 19 20 20 20 19 18 17 16 16 15 13 13
34 32 31 31 30 32 35 36 36 35 34 33 33 33 31 31 28 24 23 25 26 28 28 28 25 26 28 20 17 26 31 30 30 31 31 30 28 27 26 26 27 26 26 26 25 25 22 18 21 23 22 21 20 20 20 19 18 16 14 14 13 12 11 10 9 10 11 12 14 16 18 20 19 16 16 16 17 20 19 18 18 18 17 17 17 16 14 13
34 32 32 31 31 33 35 36 37 35 35 34 33 33 31 30 28 23 21 23 23 26 28 28 26 25 28 24 18 23 29 30 29 29 30 30 29 28 26 25 25 26 25 24 23 22 20 17 19 22 22 22 21 20 21 20 19 18 16 15 13 11 11 10 9 8 9 10 12 12 9 10 13 9 8 10 11 13 13 13 14 15 15 15 15 15 14 14
35 34 33 32 33 34 35 37 37 35 35 35 33 32 30 29 28 23 22 21 20 25 28 28 27 25 28 28 22 22 27 30 30 29 28 29 29 28 27 26 26 25 23 22 21 20 22 19 18 20 22 21 21 21 21 20 21 19 17 17 15 14 12 10 10 9 8 6 7 9 4 7 14 11 7 8 7 8 10 11 12 13 13 14 12 12 14 15
37 35 34 34 34 34 35 37 37 38 37 35 34 32 29 29 27 25 21 12 13 24 28 29 29 27 28 29 26 24 26 29 31 31 29 29 29 29 28 28 26 24 23 22 22 21 23 23 18 18 21 22 22 22 21 21 21 19 17 16 15 14 13 12 12 11 10 10 10 13 10 11 18 17 13 11 8 8 10 11 10 10 11 12 12 12 13 16
39 36 35 34 34 34 35 36 37 39 37 35 34 31 29 28 26 26 19 4 6 21 27 29 30 28 29 29 27 28 27 27 31 33 31 30 29 29 28 27 26 24 23 24 25 22 21 23 21 18 20 22 22 21 20 20 20 19 16 14 13 12 12 12 11 11 11 11 11 12 10 8 14 19 16 14 12 9 10 12 12 11 10 11 12 13 15 16
40 38 37 35 35 35 36 36 36 37 35 34 33 30 30 27 25 23 12 3 9 19 24 29 31 30 31 30 29 30 28 26 30 34 33 32 30 30 28 27 24 22 23 24 24 21 18 21 21 19 18 20 20 20 19 20 20 19 16 14 12 11 10 9 9 9 8 8 8 9 10 6 11 18 16 14 13 11 12 13 12 11 10 11 13 14 15 16
40 39 38 37 37 37 37 37 36 36 36 34 32 31 29 26 27 20 6 9 17 17 21 28 32 33 33 34 33 32 31 27 28 32 33 33 32 31 29 26 24 22 22 22 22 21 18 18 21 21 19 18 18 20 20 19 19 18 16 14 11 9 8 8 8 8 5 6 7 10 13 9 6 10 8 7 8 7 9 11 10 9 9 10 12 12 13 14
41 40 39 38 37 36 37 37 36 36 36 34 33 31 29 27 28 16 5 18 23 18 23 27 32 36 35 37 37 35 34 29 27 31 34 35 34 33 31 27 26 23 21 23 23 23 20 18 20 22 21 20 20 21 20 19 20 18 16 14 11 7 5 6 6 5 3 3 4 7 11 12 9 4 2 1 4 6 9 11 11 11 11 12 12 12 13 13
40 41 39 38 37 36 37 36 36 36 35 36 33 32 33 27 22 18 14 21 20 19 28 28 31 38 36 38 39 37 37 32 28 30 33 35 36 36 35 32 32 27 22 26 25 23 23 20 20 21 22 22 22 22 22 20 20 19 17 16 11 3 1 3 3 2 5 5 5 6 6 10 15 13 7 4 5 8 10 11 12 13 13 13 13 12 13 12
38 39 40 39 38 37 38 36 36 36 36 37 33 35 36 21 17 30 28 22 18 22 31 29 29 36 37 38 39 39 38 34 31 30 31 35 36 37 36 34 35 32 27 29 29 24 20 19 22 23 23 25 25 25 26 24 22 21 19 18 13 5 3 2 3 2 5 5 7 8 6 8 15 15 13 13 12 13 13 12 13 14 13 12 13 12 11 10
34 34 38 40 39 37 38 37 37 37 36 37 36 36 33 20 24 39 33 25 21 21 29 31 29 34 37 39 40 39 39 35 33 31 31 35 36 37 38 35 35 35 30 28 29 28 20 16 24 28 25 25 27 26 24 22 21 22 21 19 18 12 5 3 4 3 2 2 6 9 6 5 5 2 2 8 15 19 20 17 14 13 13 12 13 12 11 10
35 34 34 38 40 38 38 37 37 38 37 39 39 38 36 31 33 39 36 31 27 21 27 31 30 34 37 38 39 39 39 37 34 32 31 35 38 39 41 40 39 38 34 28 26 30 27 19 22 28 26 23 24 25 22 20 20 21 22 21 19 16 9 3 3 4 3 2 2 8 9 7 6 6 4 4 6 6 12 20 19 14 15 14 14 14 13 12
37 36 34 36 40 40 39 38 37 39 39 40 40 41 44 40 31 33 36 36 31 24 26 30 30 34 38 37 37 38 39 38 36 34 32 34 37 39 40 41 41 41 40 34 29 28 28 22 19 24 27 24 22 25 25 23 22 21 24 25 21 18 14 6 2 1 1 1 4 8 11 13 11 10 8 8 6 1 4 18 23 19 18 18 16 16 14 13
36 36 35 36 40 41 40 40 38 39 40 41 43 45 47 39 27 26 32 36 33 25 23 28 30 34 38 39 39 40 40 38 35 35 35 34 34 38 40 39 40 42 41 38 32 28 25 21 17 20 25 26 24 25 26 26 25 23 24 27 23 16 14 11 3 1 2 1 6 9 13 16 13 11 12 13 13 9 8 16 22 23 21 19 18 16 15 14
36 36 35 36 39 41 41 40 39 40 40 42 46 46 43 37 27 24 27 33 35 28 22 26 30 34 38 40 41 42 41 39 38 37 37 35 32 36 41 41 39 41 41 38 33 29 24 18 15 18 23 26 26 26 27 28 29 26 23 23 20 12 11 13 7 1 2 2 4 6 11 15 18 17 14 13 14 15 15 17 21 23 22 20 18 17 16 15
36 35 34 35 37 39 42 42 41 41 42 45 49 45 38 35 31 27 26 29 34 32 26 24 26 32 37 39 40 42 43 41 42 41 38 36 34 34 38 41 40 39 41 40 35 31 27 18 14 19 24 26 28 30 32 33 33 31 24 20 20 14 11 15 13 5 4 3 2 2 4 9 16 18 14 13 15 16 20 23 22 21 20 19 18 17 17 17
37 37 35 36 37 37 40 42 42 44 46 49 52 46 37 34 31 30 28 27 31 34 31 27 25 28 34 38 38 40 43 42 43 43 39 38 38 36 35 38 40 40 39 40 38 33 29 23 17 19 24 27 29 33 37 37 36 34 29 24 24 21 14 12 14 13 7 3 3 2 4 4 4 3 6 12 14 15 19 24 23 21 20 19 19 19 20 20
35 38 37 38 38 36 38 41 43 47 50 52 51 46 39 34 30 29 28 28 30 32 33 31 27 25 29 34 36 38 41 42 42 42 41 41 41 38 35 35 39 41 39 40 41 37 30 26 23 21 26 31 32 34 36 35 34 34 33 31 31 30 24 12 9 16 17 9 5 3 4 5 5 7 7 10 13 15 17 18 19 20 20 20 21 22 22 23
29 34 37 40 42 40 40 41 44 48 50 52 51 47 42 36 31 28 28 29 30 32 33 33 30 26 23 26 32 36 38 40 42 42 42 44 43 38 33 31 33 37 39 39 41 40 33 27 24 23 26 30 30 30 32 32 33 33 32 35 34 33 35 24 12 15 19 15 11 6 5 8 11 10 8 8 14 17 17 14 14 15 19 22 24 25 24 24
25 28 32 39 44 45 43 42 45 47 48 50 50 47 44 39 33 29 29 29 30 32 32 33 33 31 26 23 26 31 34 37 39 42 43 44 44 40 32 27 26 29 35 37 37 39 35 28 25 21 20 25 28 29 30 29 33 35 35 37 36 35 38 34 23 16 16 18 17 7 3 10 13 11 10 12 15 16 15 14 15 18 23 25 26 26 25 23
24 25 27 30 35 41 44 46 48 48 47 47 48 46 44 42 37 32 30 30 30 31 32 33 33 33 32 28 25 25 29 32 34 38 42 42 42 41 36 30 26 25 29 34 37 38 34 29 27 17 7 10 17 19 24 29 33 37 39 40 39 37 35 33 28 19 14 20 21 12 9 15 13 9 11 15 16 17 16 17 21 24 26 27 26 26 24 24
24 25 26 24 23 28 37 44 48 49 46 44 45 46 44 41 39 35 33 32 31 30 31 31 31 32 33 31 28 25 26 29 31 32 37 40 40 40 38 35 30 27 26 27 33 36 34 32 33 24 12 9 13 17 28 38 38 37 40 40 39 38 35 33 29 19 16 23 25 23 22 20 15 11 12 15 15 16 18 20 24 26 26 26 25 24 23 23
26 26 27 24 20 21 28 35 39 43 43 42 43 45 44 41 39 37 35 33 33 32 30 30 30 31 31 31 30 28 28 29 30 29 31 35 37 37 37 36 34 30 26 25 29 33 33 35 38 37 33 33 32 31 32 35 36 37 40 40 39 38 37 35 29 26 31 29 27 34 35 27 24 18 12 13 14 14 16 20 23 26 26 25 23 21 22 25
30 28 28 26 23 21 25 30 32 35 37 36 36 41 46 44 39 36 35 34 33 32 31 30 30 31 31 32 31 30 30 30 31 31 29 29 33 35 34 34 34 32 29 27 28 30 31 34 38 40 41 42 40 35 30 28 28 33 36 38 39 38 37 37 35 37 40 29 26 40 41 34 33 24 15 16 15 15 15 18 22 25 24 22 21 23 27 30
32 30 29 28 25 24 27 30 31 31 31 30 27 30 38 43 41 38 36 35 35 33 32 31 32 31 31 31 31 31 31 30 32 34 31 27 28 31 32 32 31 32 31 28 28 30 31 33 37 38 39 40 39 35 33 31 28 27 29 31 35 36 38 40 41 43 43 36 36 44 39 36 38 30 24 26 21 18 21 22 25 27 26 26 29 34 37 37
33 31 30 30 29 27 28 30 30 29 28 28 26 25 27 35 42 43 39 35 34 34 34 33 33 33 31 31 31 32 32 32 32 34 34 31 27 27 29 29 28 31 32 31 30 30 30 31 33 34 36 38 38 36 36 36 33 31 30 29 29 32 35 38 40 41 43 44 45 44 40 41 41 34 32 32 27 27 29 29 31 33 34 38 40 40 41 41
31 32 31 32 32 31 29 29 30 30 28 27 27 27 25 26 33 40 42 40 37 35 36 37 35 32 31 31 32 32 31 31 31 31 32 32 28 26 26 26 27 29 31 32 31 30 31 31 30 31 32 33 36 37 36 36 35 33 33 31 30 30 31 36 39 40 43 44 44 44 44 46 44 38 36 34 32 34 35 36 38 39 40 43 42 41 42 42
29 32 32 32 33 33 32 29 28 29 30 29 29 28 28 27 27 31 36 41 41 38 38 38 36 32 30 31 33 33 30 28 26 24 25 28 28 26 25 25 26 27 28 32 33 32 33 32 30 29 27 28 33 33 34 36 33 31 33 34 35 36 37 38 39 38 41 42 41 43 45 46 45 41 38 37 38 38 38 39 40 41 42 43 42 43 43 42
25 29 31 31 31 33 34 32 29 28 30 31 31 29 28 27 26 26 28 31 35 37 37 36 35 33 31 32 35 34 30 26 24 20 20 23 25 25 24 24 25 24 24 28 32 33 33 33 32 29 23 25 28 27 28 28 22 24 35 39 39 41 41 40 40 38 38 39 40 42 44 44 43 41 38 38 38 37 38 39 39 40 42 42 42 42 41 41
Wind_Direction
198 202 203 203 203 202 203 204 206 207 208 208 209 209 208 208 209 211 212 211 212 211 208 209 212 213 212 207 205 203 195 191 188 185 178 169 169 171 171 172 175 178 180 181 180 181 183 184 185 185 185 186 185 185 185 188 188 187 186 185 187 186 186 188 181 183 174 140 135 125 121 154 165 175 186 189 189 190 191 191 186 188 193 184 181 173 157 148
198 201 203 203 202 201 201 203 205 206 207 208 208 208 207 206 207 209 210 208 207 207 206 207 209 209 206 201 199 197 190 189 187 178 172 172 172 170 171 174 175 176 179 181 182 184 186 187 188 187 188 189 188 188 189 191 192 193 192 190 193 195 194 194 192 199 178 149 145 41 38 98 146 175 189 193 200 204 203 203 199 197 201 196 186 178 172 166
198 200 202 203 202 200 199 201 204 205 206 206 207 206 204 203 205 207 206 204 203 203 204 205 205 203 199 196 194 192 189 189 185 176 171 171 171 170 172 174 176 177 179 182 184 186 187 189 190 190 191 192 191 192 194 195 196 198 196 192 196 200 201 205 205 203 192 173 162 0 352 14 102 184 189 189 206 216 215 212 208 205 204 201 194 187 186 182
198 200 201 202 202 201 199 199 201 203 204 204 204 203 200 200 203 205 203 201 199 200 202 202 200 197 194 192 190 190 190 188 181 176 174 170 169 172 174 174 176 178 181 184 185 187 189 190 191 192 193 196 196 196 199 199 200 202 200 197 200 206 209 211 209 203 205 211 226 310 321 334 330 220 201 195 203 213 218 219 215 213 212 206 200 194 192 192
197 200 200 200 201 200 199 199 199 201 202 201 201 199 197 199 201 201 199 198 197 198 199 198 195 192 190 189 188 189 189 185 179 175 174 171 170 172 174 176 177 180 183 185 187 189 191 192 193 194 197 199 200 201 203 203 204 205 204 203 206 213 219 217 211 206 213 227 251 287 306 310 296 253 229 207 190 204 213 221 222 222 220 214 208 201 195 195
197 199 199 199 199 199 198 198 197 198 199 199 198 196 196 198 199 197 196 194 194 196 195 193 191 189 188 188 188 189 186 180 178 175 173 173 173 174 175 177 179 183 185 187 189 192 193 195 197 198 201 203 205 207 207 206 208 209 208 208 211 218 225 223 215 213 221 229 243 270 287 291 289 267 253 219 200 212 211 216 224 227 225 222 219 211 204 200
196 198 198 198 198 197 197 196 195 195 196 197 196 195 195 198 197 194 193 193 192 192 190 189 189 188 188 189 189 187 181 174 176 176 174 174 174 177 179 180 182 185 187 190 192 194 196 199 201 202 204 206 208 210 210 210 211 212 213 212 216 223 227 226 221 222 228 232 242 261 274 282 286 273 257 211 224 223 213 214 219 222 225 225 220 215 213 210
195 196 196 197 197 196 195 194 193 192 193 195 195 194 195 197 194 191 192 191 188 187 187 187 188 188 189 190 189 184 178 172 176 178 177 178 178 179 181 184 186 188 190 192 195 196 199 202 205 206 207 209 210 212 212 213 214 216 218 218 222 226 228 229 226 227 231 238 249 259 269 279 282 273 244 219 235 224 208 216 219 218 220 221 215 209 213 214
193 194 194 196 196 196 195 192 190 189 190 192 194 193 195 197 192 189 190 188 185 185 186 187 188 189 190 190 188 183 177 174 177 180 181 181 181 182 184 186 189 191 193 195 197 199 201 203 206 208 209 211 211 213 213 214 217 218 220 222 224 225 227 230 229 230 233 240 251 258 268 278 277 269 245 231 239 224 204 211 216 217 215 213 213 210 211 214
192 192 193 194 195 196 194 189 186 186 187 190 191 191 194 196 191 187 187 185 184 184 186 188 189 189 190 191 189 182 179 178 179 182 184 184 185 186 187 189 191 193 195 198 200 201 202 203 205 207 209 212 211 213 213 214 218 218 220 222 223 224 225 228 230 232 236 243 252 260 269 274 268 264 250 238 242 234 213 208 207 207 206 206 208 209 211 213
192 191 192 192 193 195 192 186 183 182 185 187 189 190 193 194 188 184 185 185 185 186 187 188 189 189 191 193 188 181 182 184 184 185 185 186 187 188 188 190 192 193 195 198 200 201 201 201 202 203 205 208 209 210 213 214 216 216 217 221 224 226 227 229 231 232 238 246 255 264 268 267 262 257 246 238 239 234 220 211 206 202 202 206 207 209 210 212
191 191 192 191 191 193 190 184 180 180 182 184 186 187 190 191 185 183 185 186 186 186 188 189 190 190 192 193 185 182 186 187 187 187 186 186 188 189 189 189 190 191 192 195 197 198 198 198 198 197 199 204 204 205 210 212 214 216 216 219 223 226 228 230 233 234 239 247 255 266 269 267 263 251 244 243 240 234 225 216 212 209 207 209 210 214 213 216
190 191 191 190 189 190 187 180 177 177 177 179 181 183 187 188 183 184 187 187 187 186 188 189 190 191 192 189 183 185 188 188 189 188 186 187 187 189 188 188 189 189 190 191 191 193 194 196 195 193 195 199 200 202 205 208 211 214 214 216 220 225 230 231 234 237 241 248 253 259 265 265 264 252 248 252 252 242 229 219 216 217 218 216 215 214 213 220
189 190 191 190 188 188 184 177 173 172 171 173 176 178 183 185 183 186 188 188 187 187 189 190 190 192 191 186 185 188 188 187 189 188 187 187 187 187 187 186 187 187 189 189 188 190 192 193 192 191 193 195 198 202 203 204 208 211 212 215 219 224 231 233 234 238 241 246 250 252 256 257 258 259 257 257 255 243 227 220 220 222 226 226 223 221 217 222
188 189 190 189 187 187 184 176 172 170 169 170 172 176 180 183 185 187 188 187 187 188 189 190 191 192 190 187 188 190 189 189 189 188 187 187 187 187 186 185 186 186 187 188 188 188 190 191 191 190 192 193 196 200 200 200 205 209 211 215 220 223 229 234 235 237 239 244 246 248 253 254 251 253 257 256 245 235 227 225 225 228 234 236 234 233 230 230
188 189 190 190 187 187 185 179 174 171 170 171 172 175 180 183 186 187 187 186 187 189 189 190 191 192 191 191 192 191 190 191 189 188 188 187 187 187 186 185 184 185 187 188 189 189 189 190 191 192 193 194 197 200 201 199 203 208 213 218 222 223 226 231 233 234 237 242 245 246 248 250 248 246 248 251 246 237 230 224 223 225 230 234 235 235 234 236
187 189 190 190 188 187 187 183 179 175 172 173 174 177 181 183 185 187 187 186 187 189 189 190 191 192 194 195 195 192 190 190 190 189 187 187 187 187 187 186 184 185 186 188 190 190 192 192 193 195 195 197 200 201 201 203 204 207 213 219 224 224 225 229 232 233 235 241 245 247 248 247 248 248 244 244 245 241 236 228 224 227 230 235 237 236 234 237
186 189 190 190 190 188 187 186 183 179 175 176 177 178 181 182 185 187 187 187 188 188 189 191 191 192 197 200 196 192 189 189 190 188 187 187 187 186 187 186 186 187 186 188 190 192 194 195 197 199 200 200 203 205 205 210 213 212 215 222 227 228 228 231 232 234 237 241 245 248 252 248 241 245 242 239 243 244 244 242 237 237 240 245 249 247 245 241
186 187 190 191 191 189 188 188 186 184 180 180 180 179 182 184 186 188 190 189 189 189 191 193 193 192 197 200 196 191 189 188 188 188 188 188 187 186 186 185 188 189 189 190 191 193 196 196 198 201 204 204 206 210 214 220 225 224 227 232 236 236 234 234 235 237 239 242 246 249 253 250 240 241 242 241 246 248 247 247 249 252 254 255 255 251 250 245
187 187 189 190 192 191 190 189 188 187 185 184 184 182 184 187 187 189 191 192 192 194 195 196 195 194 198 199 194 191 190 190 188 187 188 189 189 187 185 185 187 190 192 193 194 196 198 200 204 206 207 208 210 214 219 226 231 231 231 231 234 237 235 233 233 237 240 243 248 252 256 254 246 243 245 247 249 250 250 251 253 258 261 261 259 256 255 252
189 190 191 191 192 192 191 191 189 190 189 188 188 187 189 192 194 194 192 191 193 197 200 199 197 196 198 197 194 193 192 192 190 188 188 189 190 189 187 188 188 190 191 193 197 199 201 207 210 211 211 212 215 218 220 225 230 233 232 228 227 228 229 230 230 235 240 245 249 255 258 258 254 248 244 246 250 253 255 254 253 254 257 261 263 261 257 254
191 193 194 192 193 194 193 193 192 192 192 191 191 192 192 194 199 201 198 195 195 198 202 202 200 198 196 194 194 195 195 194 192 191 190 190 191 190 191 191 190 191 191 192 197 199 205 210 209 209 213 212 214 218 221 223 228 231 231 228 225 225 229 229 230 235 240 248 254 260 262 261 261 257 249 246 250 255 257 257 258 259 261 264 266 262 254 250
193 195 197 195 195 195 195 195 194 194 193 193 194 194 192 191 196 200 200 200 200 201 203 204 204 201 197 194 195 196 197 197 196 194 192 192 192 192 194 194 193 194 195 195 197 200 206 208 205 208 212 212 214 216 218 220 223 226 226 224 224 226 228 227 231 237 243 253 259 266 270 266 264 263 255 249 249 251 254 258 262 263 263 265 265 262 257 251
195 196 198 198 197 197 197 197 196 196 194 194 195 195 192 189 191 194 194 199 202 203 204 205 206 204 201 200 198 197 197 199 200 199 196 195 193 193 194 195 196 196 198 199 200 204 208 204 204 209 211 212 214 214 214 214 217 220 219 218 221 223 223 225 230 235 246 258 266 275 283 277 272 269 261 252 250 252 253 255 257 257 259 260 260 257 253 250
194 196 197 197 197 197 198 199 198 197 195 194 195 195 192 188 188 190 191 197 204 205 204 205 205 204 202 202 202 199 198 199 201 201 200 198 198 197 194 194 197 198 198 199 201 205 210 208 207 210 211 211 212 213 213 212 215 217 216 214 214 216 219 226 230 242 261 271 276 285 298 285 274 270 259 247 240 246 250 246 248 249 250 252 252 250 243 240
192 195 196 196 197 197 198 199 198 198 196 195 194 193 191 187 185 186 188 195 209 208 204 205 205 203 201 201 201 197 197 200 200 201 203 201 201 201 198 196 198 199 197 196 199 204 207 209 211 211 212 212 211 212 212 213 215 216 218 219 218 221 224 234 242 253 269 272 277 286 295 281 274 263 250 246 233 246 254 246 244 244 244 243 240 239 235 230
190 193 196 196 197 197 198 199 198 198 197 194 193 191 189 185 182 184 184 187 220 214 206 204 203 203 201 201 199 194 196 200 199 200 203 202 201 202 202 203 201 199 195 193 198 204 204 206 210 211 211 213 212 212 211 212 215 218 221 222 223 229 234 243 252 257 264 265 272 279 277 281 279 270 261 258 253 257 255 245 246 248 245 243 236 229 226 225
189 190 195 196 196 196 197 199 199 199 197 194 192 188 186 184 180 182 180 154 213 208 207 205 203 203 201 200 200 197 198 199 197 199 201 202 203 202 203 206 205 201 198 199 203 205 204 206 209 210 211 213 214 214 213 211 214 218 222 223 223 229 237 244 254 259 265 269 269 271 268 267 274 274 274 273 267 259 254 254 261 262 251 242 235 229 225 226
189 189 193 194 194 195 195 197 198 198 196 193 190 186 183 181 177 176 174 182 195 197 205 204 202 203 201 199 200 201 202 200 199 199 199 200 203 203 204 205 205 203 203 207 209 208 207 209 210 211 214 216 214 213 213 211 212 216 218 221 221 225 236 245 255 258 265 268 257 259 257 247 274 280 282 283 278 263 254 254 257 256 244 231 228 227 226 228
189 190 191 193 194 194 194 194 195 195 195 192 188 184 180 176 174 164 150 204 196 196 203 201 201 201 200 198 198 201 203 201 202 201 198 198 201 203 204 202 201 204 207 208 210 213 213 211 211 211 213 215 214 211 209 207 209 211 211 212 211 219 234 241 247 252 273 272 243 244 245 234 269 295 293 283 275 254 232 224 222 223 215 210 210 211 214 218
188 190 191 193 194 193 193 192 192 192 192 189 185 181 176 173 174 165 175 201 196 199 202 199 200 201 201 202 200 201 201 201 202 202 200 199 199 201 201 198 195 197 207 210 209 212 214 212 211 212 211 208 208 209 207 206 206 206 210 209 203 204 217 231 241 231 239 260 221 224 234 223 223 257 338 280 221 205 201 200 203 202 196 192 190 194 200 202
187 190 191 192 194 193 192 191 190 190 189 186 182 179 176 172 178 191 199 194 195 207 205 201 202 202 202 204 204 202 201 201 201 202 204 202 201 202 202 201 197 191 199 207 207 210 212 215 213 212 213 209 206 203 201 204 207 207 210 204 193 157 145 234 257 222 228 239 213 212 223 228 237 247 250 223 172 175 190 199 202 197 193 193 191 194 200 201
186 189 190 190 193 193 192 190 189 189 187 184 180 179 177 170 193 204 198 188 193 206 206 206 207 204 202 202 204 205 202 201 201 201 204 206 205 204 204 206 204 201 202 202 202 202 204 214 216 212 212 210 208 204 200 202 205 209 212 203 190 146 87 243 266 290 262 242 212 217 231 253 261 263 251 230 206 201 203 198 198 200 198 202 205 209 216 220
184 186 191 191 190 191 192 189 188 188 185 182 180 178 177 185 207 204 197 192 195 200 203 206 205 202 202 203 205 205 202 202 203 201 201 204 206 206 205 206 207 211 211 200 198 200 196 208 216 211 210 210 210 210 212 215 211 209 212 209 205 196 171 203 220 210 227 199 195 207 220 253 247 210 187 206 207 218 220 205 192 200 208 215 222 225 232 239
183 182 188 192 189 190 191 189 188 187 184 183 181 178 186 201 208 204 199 195 196 197 197 202 204 199 199 203 205 205 204 203 203 203 203 205 207 208 208 208 206 209 211 202 198 202 203 212 216 211 211 211 209 209 213 215 210 204 204 207 211 214 210 183 171 180 147 81 202 208 220 235 204 164 128 152 185 217 221 204 197 208 218 222 229 232 236 240
189 185 184 187 189 189 190 189 188 187 185 184 182 186 197 205 206 205 202 198 199 199 190 189 196 196 195 200 203 204 206 206 204 202 205 208 212 213 213 212 210 210 211 208 201 200 203 212 217 209 207 206 204 205 205 205 206 204 204 208 211 215 219 206 155 164 154 275 251 223 231 242 236 226 217 201 202 23 160 189 199 214 223 226 231 232 231 231
192 191 187 186 187 189 190 189 188 188 188 187 188 195 204 206 205 205 205 202 202 201 192 186 189 195 195 198 202 204 205 206 205 204 205 207 213 217 215 216 216 215 215 214 210 207 205 204 208 206 203 202 200 201 204 207 210 209 208 212 213 213 220 216 193 72 84 267 256 232 235 240 234 231 220 209 221 238 210 195 204 215 221 225 227 226 223 225
191 192 190 188 188 189 190 189 188 189 189 191 196 202 206 207 206 206 206 206 203 202 202 196 194 197 199 199 201 202 203 204 204 205 206 207 213 219 216 215 218 217 218 218 217 218 212 202 201 202 200 201 201 201 204 209 215 218 218 216 210 206 211 202 190 141 156 235 280 245 234 235 231 232 231 222 222 224 216 211 213 215 216 219 220 220 223 231
188 189 189 189 189 189 190 189 189 190 190 196 202 205 207 206 206 208 207 207 206 205 206 205 202 201 202 205 204 201 202 204 205 206 207 208 214 221 219 217 218 217 217 218 218 220 217 208 201 201 198 199 200 203 207 210 212 215 219 216 210 210 209 200 201 199 172 190 269 272 246 245 246 250 251 238 232 228 217 210 209 210 212 214 217 223 231 240
187 187 188 189 188 187 189 189 190 191 194 201 205 206 207 207 206 207 207 205 206 207 208 210 210 206 204 207 207 204 203 206 208 208 209 211 215 221 222 219 219 218 216 216 217 219 219 215 210 200 194 198 203 208 214 216 213 212 211 208 207 208 204 202 216 219 206 185 176 218 271 260 242 232 211 210 216 218 212 208 210 216 221 224 226 231 237 240
190 187 188 190 188 186 186 188 191 193 198 205 207 207 208 208 206 205 206 206 206 209 211 211 214 214 210 208 209 208 207 207 209 211 212 215 217 220 222 220 219 218 214 213 215 217 216 214 213 201 195 202 208 213 218 219 221 223 223 221 218 215 209 198 215 221 216 215 193 185 264 246 175 151 165 190 205 213 218 219 220 223 227 231 233 235 237 237
198 191 188 189 189 187 186 189 192 196 201 205 207 208 210 209 207 204 204 207 208 210 212 213 216 218 217 215 213 213 211 210 211 212 215 219 220 221 223 222 220 218 216 216 216 216 215 213 213 209 208 212 213 217 220 219 223 227 231 233 230 226 220 212 212 215 209 217 225 225 269 248 222 219 222 214 213 216 219 222 223 225 227 229 232 233 233 235
207 200 192 188 187 187 187 190 194 197 203 207 208 210 211 211 209 205 204 206 208 211 212 213 216 218 219 218 216 216 215 214 216 218 219 222 223 223 224 223 222 217 216 218 217 216 216 215 212 209 213 217 216 220 223 222 223 223 226 230 228 227 225 221 226 229 212 217 221 209 264 248 237 240 226 206 206 208 210 219 225 227 224 223 226 229 231 234
208 206 202 196 191 189 189 192 196 199 204 208 208 209 212 212 211 207 205 205 207 209 212 213 215 217 220 220 217 219 217 215 219 223 224 225 226 225 225 225 224 219 217 219 219 216 214 212 208 196 185 215 219 226 228 224 224 224 226 227 226 226 225 221 227 230 222 229 223 206 235 244 241 234 203 197 209 214 216 223 222 218 217 218 222 227 232 237
206 205 206 205 201 197 195 194 197 200 204 208 209 210 211 212 211 208 205 206 207 208 210 213 214 216 219 220 218 218 219 218 221 223 225 227 228 228 226 225 225 224 222 222 222 220 216 212 210 200 182 195 207 215 223 222 219 221 225 226 226 226 222 222 224 220 229 239 226 219 233 241 241 231 198 195 209 212 215 222 220 215 214 218 223 227 236 243
206 206 205 202 200 205 203 200 200 203 205 208 210 211 211 210 210 209 207 206 207 208 208 210 212 214 215 217 216 215 217 220 222 224 226 227 228 229 228 226 225 224 221 220 221 221 219 218 220 217 215 219 219 218 223 223 219 220 225 226 226 226 225 224 221 221 233 238 232 234 239 242 246 240 212 203 203 198 208 215 215 215 217 220 226 236 249 255
207 208 207 201 198 205 209 206 206 207 208 210 212 213 213 212 209 207 208 208 208 208 209 209 211 212 212 213 214 214 215 218 221 224 226 227 228 229 228 226 224 221 219 218 217 218 219 221 225 227 228 232 232 229 232 235 230 229 231 231 230 229 227 224 223 230 235 232 238 245 241 241 245 237 221 222 206 194 213 217 217 222 224 226 238 253 262 262
207 209 210 206 203 205 209 211 210 210 211 212 212 213 214 214 212 208 206 208 210 210 211 212 213 214 214 214 215 215 215 217 221 223 224 227 227 227 227 225 222 219 217 216 216 217 220 225 227 230 233 237 237 237 240 243 243 241 240 239 238 235 231 229 230 237 236 231 242 250 245 246 247 239 237 242 229 222 235 235 231 234 236 242 252 262 265 265
207 209 209 210 210 209 211 214 216 217 217 216 216 215 213 213 216 215 212 210 210 211 212 215 216 215 215 214 216 218 218 218 221 222 223 225 226 226 226 223 220 218 216 215 217 217 220 226 230 231 235 238 238 239 241 243 245 244 243 243 242 241 240 240 241 243 241 240 247 251 251 255 255 250 250 251 245 245 249 247 244 247 250 255 260 265 266 268
206 209 209 210 214 215 214 216 220 223 225 223 223 224 220 215 215 217 219 219 217 215 214 216 216 215 214 214 215 218 220 222 225 226 224 224 226 226 226 224 223 220 215 215 217 218 221 225 228 231 234 238 238 238 239 240 242 243 243 243 242 241 241 243 245 245 242 243 248 249 252 258 259 256 256 257 255 256 257 257 257 259 262 265 268 270 271 274
205 208 209 210 213 216 218 218 219 223 226 226 226 227 227 224 219 216 219 222 222 221 219 219 218 216 216 217 219 220 222 223 225 226 224 224 225 226 226 225 225 222 218 215 215 217 220 223 226 227 230 235 237 237 237 238 238 239 239 239 239 237 237 238 241 243 242 243 248 248 250 257 259 258 257 258 258 259 262 264 266 268 271 273 274 276 278 280
205 207 210 211 213 216 218 219 219 221 225 227 228 228 227 227 224 219 218 220 220 221 221 222 223 221 219 219 221 222 221 221 221 221 221 221 220 221 222 222 222 221 219 216 216 217 219 222 225 224 224 232 236 236 236 234 232 234 236 236 236 237 239 240 241 242 242 243 245 246 249 256 260 259 259 259 261 265 268 270 272 274 275 277 278 280 282 283
Height
3048 3051 3053 3056 3058 3061 3063 3066 3069 3072 3074 3076 3079 3081 3084 3087 3090 3093 3096 3098 3100 3103 3105 3107 3109 3111 3113 3113 3114 3116 3116 3118 3119 3121 3124 3126 3127 3129 3132 3134 3137 3140 3143 3146 3147 3149 3151 3153 3155 3157 3160 3161 3163 3164 3166 3167 3168 3169 3169 3170 3171 3172 3173 3173 3174 3175 3175 3176 3176 3177 3176 3176 3177 3177 3178 3178 3179 3180 3181 3181 3182 3183 3184 3185 3186 3186 3187 3188
3047 3049 3052 3054 3057 3059 3062 3065 3067 3070 3072 3075 3077 3080 3083 3086 3089 3092 3094 3097 3099 3101 3104 3106 3108 3110 3111 3112 3113 3115 3116 3117 3119 3120 3123 3125 3126 3129 3131 3134 3137 3140 3143 3145 3148 3149 3151 3153 3155 3157 3159 3161 3162 3164 3165 3166 3168 3168 3169 3170 3171 3172 3173 3173 3174 3175 3175 3176 3176 3177 3176 3176 3176 3177 3177 3178 3179 3179 3180 3181 3182 3183 3184 3185 3185 3186 3187 3188
3045 3048 3050 3053 3055 3058 3060 3063 3066 3068 3071 3073 3075 3078 3081 3084 3087 3090 3093 3095 3098 3100 3102 3104 3107 3109 3110 3111 3112 3114 3115 3117 3118 3120 3122 3124 3126 3129 3131 3134 3137 3140 3142 3145 3147 3149 3151 3153 3155 3157 3159 3160 3162 3164 3165 3166 3167 3168 3169 3170 3171 3172 3173 3173 3174 3175 3175 3176 3176 3177 3177 3176 3176 3177 3177 3178 3178 3179 3180 3181 3182 3182 3183 3184 3185 3186 3187 3188
3044 3046 3049 3051 3054 3056 3059 3061 3064 3067 3069 3072 3074 3077 3080 3083 3086 3089 3092 3094 3096 3098 3101 3103 3105 3108 3109 3110 3112 3114 3115 3116 3118 3120 3122 3123 3126 3129 3131 3134 3137 3140 3142 3145 3147 3149 3151 3153 3155 3156 3158 3160 3162 3163 3165 3166 3167 3168 3169 3170 3171 3172 3173 3173 3174 3174 3175 3176 3176 3177 3177 3176 3176 3177 3177 3177 3178 3179 3179 3180 3181 3181 3182 3183 3184 3185 3186 3187
3042 3045 3047 3050 3052 3055 3057 3059 3062 3065 3068 3070 3073 3076 3078 3081 3084 3088 3090 3093 3095 3097 3100 3102 3104 3107 3108 3109 3111 3113 3114 3116 3118 3120 3121 3123 3126 3129 3131 3134 3137 3139 3142 3144 3147 3149 3151 3153 3154 3156 3158 3159 3161 3163 3164 3165 3166 3168 3169 3170 3171 3172 3173 3173 3174 3174 3175 3175 3176 3176 3177 3177 3177 3177 3177 3177 3177 3178 3178 3179 3180 3181 3181 3182 3183 3184 3185 3187
3041 3044 3046 3048 3051 3053 3056 3058 3061 3064 3066 3069 3072 3074 3077 3080 3083 3086 3089 3091 3094 3096 3099 3101 3104 3106 3107 3109 3110 3112 3114 3116 3117 3119 3121 3124 3126 3129 3131 3134 3136 3139 3142 3144 3147 3149 3151 3153 3154 3156 3157 3159 3161 3162 3164 3165 3166 3167 3168 3170 3171 3171 3172 3173 3173 3174 3174 3175 3176 3176 3176 3177 3177 3176 3176 3177 3177 3177 3177 3178 3179 3180 3181 3182 3183 3184 3185 3186
3040 3043 3045 3047 3049 3052 3054 3057 3059 3062 3065 3068 3070 3073 3076 3079 3082 3085 3088 3090 3093 3095 3098 3101 3103 3105 3107 3108 3109 3111 3114 3116 3117 3119 3122 3124 3126 3129 3131 3133 3136 3138 3141 3144 3146 3148 3150 3152 3154 3155 3157 3159 3160 3162 3163 3165 3166 3167 3168 3169 3170 3171 3172 3172 3173 3173 3174 3174 3175 3176 3176 3176 3176 3176 3176 3176 3176 3176 3177 3177 3178 3179 3180 3181 3182 3183 3184 3185
3039 3041 3044 3046 3048 3051 3053 3055 3057 3060 3063 3067 3069 3072 3075 3078 3081 3084 3087 3089 3092 3094 3097 3100 3102 3104 3106 3107 3109 3111 3113 3115 3117 3119 3122 3124 3126 3128 3131 3133 3136 3138 3141 3143 3146 3148 3150 3152 3153 3155 3157 3158 3160 3161 3163 3164 3165 3166 3167 3168 3169 3170 3171 3172 3173 3173 3173 3174 3175 3175 3175 3176 3175 3175 3176 3176 3175 3175 3176 3177 3177 3178 3179 3180 3181 3182 3183 3184
3038 3040 3043 3045 3047 3050 3052 3054 3056 3059 3062 3065 3068 3071 3074 3078 3081 3083 3086 3089 3091 3094 3097 3099 3101 3103 3105 3107 3109 3110 3112 3114 3116 3119 3122 3124 3126 3128 3131 3133 3136 3138 3140 3143 3145 3147 3149 3151 3153 3155 3157 3158 3159 3161 3162 3164 3165 3166 3167 3168 3168 3169 3170 3171 3172 3172 3173 3173 3174 3174 3175 3175 3175 3174 3175 3174 3174 3175 3176 3176 3177 3177 3179 3179 3180 3181 3182 3183
3036 3039 3042 3044 3046 3049 3050 3052 3054 3057 3060 3064 3067 3070 3074 3077 3080 3083 3086 3088 3091 3093 3096 3099 3101 3103 3105 3107 3108 3110 3112 3114 3116 3119 3121 3124 3126 3128 3131 3133 3135 3138 3140 3142 3144 3146 3148 3151 3153 3154 3156 3157 3159 3160 3162 3163 3164 3165 3166 3167 3167 3168 3169 3170 3171 3171 3172 3172 3173 3173 3174 3174 3174 3174 3174 3174 3174 3175 3175 3176 3176 3177 3178 3179 3179 3180 3181 3182
3035 3038 3040 3043 3045 3047 3049 3051 3053 3056 3059 3063 3066 3070 3073 3077 3079 3082 3085 3088 3090 3093 3095 3098 3100 3102 3104 3106 3108 3110 3112 3114 3116 3118 3121 3123 3125 3128 3130 3132 3135 3137 3139 3142 3144 3146 3148 3150 3152 3153 3155 3156 3158 3160 3161 3162 3163 3164 3165 3166 3167 3168 3169 3169 3170 3170 3171 3171 3172 3172 3172 3173 3173 3173 3173 3173 3173 3174 3175 3176 3176 3176 3177 3178 3178 3179 3180 3181
3033 3037 3039 3042 3044 3047 3049 3050 3052 3055 3059 3062 3066 3069 3073 3076 3079 3082 3085 3088 3090 3093 3095 3097 3099 3102 3104 3105 3108 3110 3111 3113 3115 3118 3120 3122 3124 3127 3129 3131 3134 3136 3138 3141 3143 3145 3147 3149 3151 3152 3154 3155 3157 3159 3160 3161 3162 3163 3164 3165 3166 3167 3168 3168 3169 3169 3170 3170 3171 3171 3171 3171 3172 3172 3172 3172 3173 3174 3174 3175 3176 3176 3177 3177 3178 3178 3179 3180
3032 3036 3039 3041 3044 3046 3048 3050 3052 3055 3058 3061 3065 3069 3073 3076 3079 3082 3085 3087 3090 3092 3095 3097 3099 3101 3103 3105 3107 3109 3110 3113 3115 3117 3119 3121 3124 3126 3129 3131 3133 3135 3138 3140 3142 3144 3146 3148 3150 3151 3153 3154 3156 3157 3158 3160 3161 3162 3163 3164 3165 3166 3166 3167 3168 3168 3169 3169 3170 3170 3170 3170 3170 3171 3171 3172 3172 3173 3174 3174 3175 3175 3176 3177 3177 3178 3179 3179
3031 3035 3038 3041 3043 3046 3048 3050 3052 3054 3057 3061 3065 3068 3072 3076 3079 3082 3084 3087 3090 3092 3094 3096 3098 3100 3102 3104 3106 3108 3110 3112 3114 3116 3119 3121 3123 3125 3128 3130 3132 3134 3137 3139 3141 3143 3145 3147 3149 3150 3152 3153 3155 3156 3157 3158 3160 3161 3162 3162 3163 3164 3165 3165 3166 3167 3167 3168 3169 3170 3169 3168 3169 3170 3170 3171 3172 3172 3173 3173 3174 3174 3175 3175 3176 3177 3178 3178
3029 3033 3037 3040 3043 3045 3048 3049 3051 3054 3057 3060 3064 3068 3072 3076 3079 3081 3084 3087 3089 3091 3093 3095 3097 3099 3102 3103 3105 3107 3109 3111 3113 3116 3118 3120 3123 3125 3127 3129 3131 3133 3136 3138 3140 3142 3144 3146 3147 3149 3150 3152 3153 3155 3156 3157 3158 3159 3160 3161 3161 3163 3164 3164 3165 3165 3166 3167 3167 3168 3168 3168 3168 3169 3170 3170 3171 3171 3172 3172 3173 3173 3174 3174 3175 3176 3177 3178
3028 3032 3036 3039 3042 3044 3047 3049 3051 3054 3057 3060 3064 3067 3071 3075 3078 3081 3083 3086 3088 3090 3092 3094 3096 3098 3101 3102 3104 3106 3108 3110 3113 3115 3117 3120 3122 3124 3126 3128 3130 3132 3135 3137 3139 3141 3143 3145 3146 3148 3149 3150 3152 3153 3155 3156 3157 3158 3158 3158 3159 3162 3163 3164 3164 3164 3165 3165 3166 3167 3167 3167 3167 3168 3169 3169 3170 3170 3170 3171 3171 3172 3172 3173 3174 3175 3176 3177
3027 3031 3034 3038 3041 3044 3047 3049 3051 3054 3057 3060 3063 3067 3070 3074 3077 3080 3082 3084 3087 3089 3092 3094 3096 3098 3100 3101 3102 3105 3107 3110 3112 3114 3116 3119 3121 3123 3125 3127 3129 3131 3133 3136 3138 3140 3142 3143 3145 3146 3147 3149 3150 3152 3154 3154 3155 3156 3156 3157 3158 3160 3162 3162 3162 3163 3163 3164 3165 3165 3165 3166 3167 3167 3168 3168 3168 3169 3169 3170 3170 3171 3171 3172 3173 3174 3175 3175
3026 3029 3033 3037 3040 3043 3046 3049 3051 3054 3056 3059 3062 3065 3069 3072 3075 3078 3081 3083 3085 3088 3090 3092 3094 3096 3098 3098 3101 3104 3107 3109 3111 3113 3115 3118 3120 3122 3124 3127 3128 3130 3132 3135 3137 3139 3140 3142 3144 3145 3146 3147 3148 3149 3150 3151 3153 3155 3156 3156 3157 3159 3160 3161 3161 3161 3162 3162 3163 3164 3164 3165 3166 3166 3166 3167 3167 3167 3168 3168 3169 3170 3171 3171 3172 3173 3173 3174
3024 3028 3032 3036 3039 3042 3045 3048 3051 3053 3055 3058 3061 3064 3067 3070 3074 3077 3079 3081 3083 3085 3087 3088 3090 3093 3094 3096 3100 3103 3106 3108 3110 3112 3114 3116 3119 3121 3123 3126 3128 3130 3131 3133 3135 3137 3138 3140 3141 3142 3143 3144 3146 3148 3150 3151 3153 3155 3156 3156 3157 3158 3159 3160 3160 3160 3161 3161 3162 3162 3162 3163 3164 3164 3165 3166 3166 3166 3166 3167 3168 3169 3169 3170 3171 3171 3172 3173
3023 3027 3030 3034 3037 3041 3044 3047 3049 3052 3054 3057 3060 3062 3064 3067 3070 3073 3076 3079 3081 3083 3084 3086 3089 3092 3094 3096 3099 3102 3105 3107 3109 3111 3113 3115 3118 3120 3122 3124 3126 3128 3130 3132 3134 3135 3137 3138 3138 3139 3141 3144 3146 3148 3150 3151 3153 3154 3155 3155 3156 3157 3158 3158 3159 3159 3159 3160 3160 3161 3161 3161 3163 3163 3164 3165 3164 3164 3165 3166 3167 3167 3168 3168 3169 3170 3171 3171
3022 3025 3029 3032 3036 3039 3042 3045 3048 3051 3053 3056 3059 3061 3062 3065 3067 3070 3073 3076 3079 3082 3084 3086 3089 3091 3094 3096 3099 3101 3103 3105 3108 3110 3112 3115 3117 3119 3121 3123 3124 3126 3128 3131 3133 3135 3136 3136 3137 3140 3143 3145 3146 3147 3149 3150 3151 3152 3153 3154 3155 3156 3156 3157 3158 3158 3158 3158 3159 3159 3159 3159 3161 3162 3162 3163 3162 3162 3164 3164 3165 3166 3166 3167 3167 3168 3169 3170
3021 3024 3027 3031 3034 3038 3041 3044 3047 3049 3052 3055 3057 3060 3062 3066 3069 3072 3074 3076 3078 3081 3084 3086 3088 3091 3093 3096 3098 3100 3102 3104 3107 3109 3111 3114 3116 3118 3119 3121 3123 3125 3127 3129 3131 3133 3134 3135 3138 3141 3142 3143 3145 3146 3147 3149 3149 3151 3152 3153 3154 3155 3155 3156 3157 3157 3157 3157 3157 3157 3157 3157 3159 3160 3160 3161 3161 3161 3162 3162 3163 3164 3164 3165 3166 3166 3167 3167
3019 3022 3026 3029 3033 3036 3039 3042 3045 3048 3051 3054 3056 3059 3062 3065 3069 3072 3075 3077 3079 3081 3083 3086 3088 3090 3093 3095 3097 3098 3101 3103 3105 3107 3110 3112 3114 3117 3118 3120 3123 3124 3126 3127 3129 3130 3131 3134 3138 3139 3140 3142 3143 3144 3146 3147 3148 3150 3151 3152 3153 3154 3155 3155 3156 3156 3156 3156 3156 3156 3155 3155 3157 3158 3158 3159 3159 3159 3160 3161 3161 3162 3162 3163 3164 3164 3165 3165
3017 3021 3025 3028 3031 3035 3038 3041 3044 3046 3050 3053 3056 3059 3062 3065 3068 3071 3074 3077 3079 3080 3083 3085 3088 3090 3092 3095 3096 3098 3100 3103 3105 3107 3109 3111 3113 3116 3118 3120 3122 3123 3125 3127 3128 3130 3132 3134 3136 3137 3138 3140 3142 3143 3145 3146 3147 3149 3150 3151 3152 3153 3154 3155 3155 3155 3155 3155 3155 3155 3154 3153 3154 3156 3156 3157 3158 3158 3159 3159 3159 3159 3160 3161 3162 3162 3163 3164
3016 3019 3023 3026 3029 3032 3036 3039 3042 3046 3049 3052 3055 3058 3062 3064 3067 3070 3073 3076 3078 3079 3082 3084 3086 3089 3091 3094 3095 3097 3100 3102 3105 3107 3109 3111 3113 3114 3117 3119 3121 3122 3124 3126 3128 3130 3132 3133 3134 3135 3137 3138 3140 3142 3144 3145 3147 3148 3149 3150 3151 3152 3153 3154 3154 3154 3155 3155 3154 3155 3155 3153 3152 3154 3155 3155 3156 3156 3157 3157 3157 3158 3158 3159 3160 3160 3161 3162
3014 3018 3021 3024 3027 3030 3034 3037 3041 3045 3048 3050 3053 3057 3061 3063 3066 3069 3072 3076 3077 3077 3080 3082 3085 3087 3089 3092 3094 3096 3099 3101 3103 3106 3108 3110 3111 3113 3115 3117 3119 3121 3123 3125 3127 3128 3129 3131 3132 3134 3136 3137 3139 3141 3143 3145 3146 3147 3147 3149 3150 3151 3152 3153 3153 3154 3154 3154 3154 3154 3155 3153 3150 3152 3154 3154 3155 3155 3155 3155 3155 3156 3157 3157 3158 3158 3159 3159
3012 3016 3019 3022 3025 3029 3032 3035 3039 3042 3045 3049 3052 3056 3060 3062 3065 3068 3072 3077 3076 3075 3078 3080 3082 3085 3087 3090 3092 3095 3096 3098 3101 3104 3106 3108 3109 3111 3114 3115 3117 3119 3121 3123 3124 3125 3126 3128 3131 3132 3134 3136 3137 3139 3141 3143 3145 3146 3146 3148 3149 3150 3151 3152 3152 3153 3153 3153 3154 3154 3155 3154 3149 3149 3152 3153 3154 3154 3154 3154 3154 3154 3155 3155 3156 3156 3157 3157
3009 3013 3017 3021 3024 3027 3030 3034 3038 3041 3044 3048 3051 3055 3058 3061 3065 3067 3071 3075 3073 3072 3075 3078 3080 3083 3086 3088 3091 3092 3093 3095 3098 3100 3103 3106 3108 3110 3112 3114 3116 3118 3120 3121 3121 3122 3125 3127 3129 3131 3132 3134 3136 3138 3140 3142 3144 3144 3145 3147 3148 3149 3150 3151 3151 3152 3152 3153 3153 3152 3154 3154 3149 3147 3149 3151 3152 3153 3152 3152 3152 3153 3153 3153 3154 3154 3155 3155
3008 3011 3015 3019 3022 3025 3029 3033 3037 3040 3044 3048 3051 3055 3057 3061 3064 3067 3071 3072 3068 3069 3072 3075 3078 3081 3083 3086 3088 3090 3092 3094 3096 3098 3101 3104 3106 3108 3110 3113 3116 3118 3119 3120 3121 3123 3124 3126 3128 3130 3132 3133 3135 3138 3139 3141 3142 3143 3145 3146 3147 3149 3149 3150 3150 3151 3151 3151 3151 3152 3153 3153 3148 3145 3147 3148 3149 3151 3151 3150 3151 3151 3151 3152 3152 3153 3153 3154
3006 3010 3013 3017 3020 3023 3027 3031 3035 3039 3043 3047 3050 3054 3057 3060 3062 3066 3070 3067 3064 3067 3069 3071 3075 3077 3080 3083 3085 3087 3090 3092 3094 3097 3099 3101 3104 3106 3109 3111 3115 3117 3118 3119 3121 3122 3123 3125 3127 3128 3130 3132 3135 3136 3138 3140 3141 3142 3144 3145 3147 3148 3149 3149 3149 3150 3151 3150 3149 3150 3151 3151 3149 3145 3145 3146 3147 3148 3148 3148 3149 3149 3150 3150 3150 3151 3151 3152
3005 3008 3011 3015 3019 3022 3026 3029 3033 3037 3041 3045 3049 3052 3055 3058 3060 3063 3063 3060 3062 3065 3066 3068 3071 3074 3077 3079 3081 3084 3087 3090 3092 3095 3096 3099 3101 3103 3106 3109 3111 3114 3117 3118 3119 3121 3122 3124 3125 3126 3128 3131 3133 3135 3137 3138 3139 3141 3142 3144 3146 3147 3148 3149 3148 3149 3150 3149 3148 3148 3149 3150 3148 3144 3144 3145 3145 3146 3147 3147 3148 3148 3149 3149 3149 3150 3150 3151
3003 3006 3010 3014 3018 3021 3025 3028 3032 3036 3039 3043 3047 3050 3052 3056 3058 3056 3054 3056 3060 3061 3062 3065 3068 3070 3074 3077 3079 3082 3084 3087 3090 3092 3095 3096 3098 3100 3102 3104 3106 3109 3112 3114 3116 3119 3121 3122 3123 3125 3127 3128 3130 3132 3135 3136 3138 3139 3141 3143 3145 3147 3148 3148 3148 3149 3148 3146 3146 3147 3148 3147 3144 3142 3143 3144 3145 3145 3146 3146 3147 3147 3148 3148 3148 3149 3149 3150
3001 3005 3008 3012 3016 3020 3023 3027 3031 3034 3037 3042 3045 3047 3051 3053 3051 3048 3048 3052 3054 3055 3058 3063 3065 3068 3072 3074 3077 3080 3082 3086 3088 3090 3093 3095 3097 3098 3101 3103 3104 3105 3106 3109 3113 3116 3119 3121 3121 3123 3124 3125 3127 3129 3130 3132 3135 3137 3139 3141 3142 3145 3147 3148 3149 3149 3146 3144 3144 3146 3147 3143 3139 3139 3140 3142 3143 3143 3144 3145 3146 3146 3147 3147 3147 3148 3148 3149
3000 3004 3007 3010 3014 3018 3022 3025 3028 3032 3036 3039 3042 3045 3049 3047 3042 3042 3046 3048 3050 3052 3056 3060 3063 3067 3070 3072 3074 3077 3081 3084 3086 3088 3090 3092 3094 3096 3098 3100 3102 3104 3105 3108 3111 3113 3115 3116 3117 3119 3121 3122 3124 3126 3128 3131 3134 3135 3137 3139 3139 3140 3142 3143 3144 3144 3142 3142 3144 3145 3145 3140 3137 3137 3137 3138 3140 3141 3141 3144 3145 3145 3145 3146 3146 3147 3147 3148
2998 3002 3005 3008 3012 3016 3020 3024 3026 3030 3034 3037 3040 3042 3041 3037 3036 3039 3043 3045 3048 3050 3053 3058 3061 3064 3067 3070 3072 3075 3078 3080 3084 3087 3088 3089 3090 3091 3093 3095 3098 3100 3103 3106 3108 3110 3112 3112 3113 3115 3118 3120 3123 3125 3128 3131 3132 3133 3135 3136 3137 3137 3137 3139 3141 3141 3141 3143 3143 3142 3140 3136 3136 3137 3136 3137 3139 3138 3139 3141 3143 3143 3144 3145 3145 3146 3147 3147
2996 2999 3002 3006 3009 3013 3017 3022 3025 3028 3031 3034 3037 3036 3032 3030 3033 3037 3040 3044 3046 3048 3051 3055 3059 3062 3065 3067 3070 3073 3076 3078 3081 3084 3086 3088 3089 3089 3091 3093 3095 3097 3098 3101 3103 3105 3108 3110 3111 3113 3116 3119 3121 3123 3126 3128 3129 3131 3132 3132 3133 3135 3136 3138 3140 3141 3143 3142 3139 3137 3135 3134 3136 3136 3135 3137 3137 3137 3138 3140 3141 3142 3142 3143 3143 3144 3145 3145
2994 2997 3000 3003 3007 3011 3015 3019 3023 3026 3029 3032 3032 3029 3027 3030 3034 3037 3040 3043 3046 3048 3050 3052 3056 3058 3060 3063 3066 3069 3072 3076 3079 3081 3082 3085 3086 3086 3089 3091 3093 3095 3096 3099 3101 3102 3104 3107 3109 3112 3114 3117 3119 3121 3124 3125 3126 3127 3128 3129 3131 3135 3136 3137 3139 3141 3144 3142 3137 3133 3133 3133 3134 3133 3133 3135 3136 3137 3138 3139 3140 3140 3140 3141 3142 3143 3143 3144
2992 2995 2999 3002 3005 3009 3013 3018 3021 3024 3028 3029 3027 3025 3027 3031 3034 3037 3040 3042 3044 3047 3049 3050 3052 3055 3056 3058 3061 3065 3069 3072 3075 3077 3079 3081 3081 3082 3085 3088 3090 3093 3095 3098 3100 3101 3103 3106 3108 3110 3112 3115 3117 3119 3121 3122 3123 3124 3125 3127 3130 3132 3133 3135 3137 3138 3140 3141 3136 3131 3130 3130 3129 3129 3131 3133 3134 3136 3137 3137 3138 3138 3139 3140 3140 3141 3142 3142
2990 2994 2997 3000 3004 3007 3011 3016 3019 3022 3025 3024 3022 3023 3026 3029 3033 3036 3038 3041 3043 3046 3047 3048 3050 3052 3055 3056 3058 3062 3065 3068 3070 3073 3075 3077 3078 3078 3081 3085 3087 3090 3093 3096 3098 3100 3102 3104 3106 3108 3110 3113 3115 3116 3116 3116 3118 3121 3124 3126 3128 3129 3130 3131 3133 3133 3134 3137 3136 3131 3128 3126 3124 3126 3128 3130 3132 3133 3134 3135 3136 3136 3137 3138 3139 3140 3140 3141
2987 2991 2994 2998 3002 3005 3009 3013 3017 3020 3020 3018 3018 3021 3024 3027 3031 3034 3036 3039 3041 3043 3045 3047 3048 3050 3052 3054 3057 3060 3063 3065 3067 3070 3071 3073 3074 3075 3078 3082 3084 3087 3091 3094 3096 3098 3100 3102 3104 3106 3109 3110 3110 3110 3110 3111 3114 3117 3120 3122 3124 3126 3128 3129 3130 3130 3130 3133 3134 3131 3126 3123 3122 3124 3125 3127 3129 3130 3132 3133 3134 3135 3136 3137 3137 3138 3138 3138
2984 2988 2991 2995 2999 3002 3006 3010 3012 3015 3015 3014 3016 3020 3022 3026 3029 3032 3035 3037 3039 3041 3043 3045 3047 3048 3050 3052 3055 3058 3060 3063 3065 3067 3069 3070 3071 3073 3075 3078 3081 3084 3088 3090 3092 3095 3097 3099 3101 3103 3104 3105 3105 3106 3108 3111 3113 3114 3116 3118 3119 3121 3124 3126 3127 3127 3127 3128 3129 3129 3124 3120 3121 3123 3123 3126 3127 3129 3130 3131 3133 3134 3135 3135 3135 3135 3136 3136
2983 2985 2988 2992 2996 3000 3003 3006 3008 3010 3010 3010 3014 3018 3020 3024 3027 3030 3033 3035 3037 3039 3041 3044 3045 3047 3049 3051 3053 3056 3058 3060 3062 3064 3066 3066 3069 3071 3073 3076 3079 3082 3085 3087 3089 3092 3095 3097 3099 3100 3101 3103 3104 3106 3107 3110 3112 3114 3115 3115 3117 3118 3119 3120 3120 3120 3124 3125 3126 3127 3124 3119 3119 3122 3123 3125 3126 3126 3128 3130 3131 3132 3133 3133 3133 3133 3133 3134
2981 2983 2986 2989 2992 2995 2999 3001 3004 3006 3006 3008 3012 3016 3018 3022 3025 3028 3031 3033 3035 3037 3039 3041 3043 3045 3047 3049 3052 3054 3056 3058 3059 3061 3063 3064 3067 3070 3072 3075 3077 3080 3083 3085 3087 3090 3093 3095 3097 3099 3100 3102 3103 3104 3106 3108 3109 3110 3110 3111 3113 3113 3114 3116 3117 3118 3121 3121 3122 3126 3123 3116 3116 3120 3122 3123 3123 3124 3126 3128 3129 3130 3130 3130 3130 3131 3132 3132
2979 2982 2984 2986 2989 2992 2994 2997 2999 3001 3003 3005 3010 3013 3016 3020 3023 3026 3029 3031 3033 3035 3037 3039 3041 3043 3045 3047 3050 3052 3054 3056 3057 3059 3061 3062 3064 3068 3071 3073 3075 3078 3080 3081 3083 3086 3089 3091 3092 3096 3099 3102 3103 3104 3103 3103 3103 3103 3104 3106 3108 3110 3113 3115 3116 3118 3118 3117 3119 3122 3118 3113 3115 3118 3120 3121 3122 3123 3125 3126 3127 3127 3126 3127 3128 3129 3130 3130
2978 2980 2983 2985 2987 2989 2992 2994 2996 2999 3000 3003 3007 3010 3013 3017 3020 3023 3026 3029 3030 3033 3035 3037 3039 3041 3043 3045 3048 3050 3052 3054 3055 3056 3058 3060 3062 3065 3068 3070 3073 3075 3077 3079 3081 3083 3085 3086 3087 3089 3092 3093 3094 3093 3091 3092 3095 3097 3099 3101 3104 3107 3110 3112 3115 3117 3115 3113 3114 3114 3111 3111 3114 3116 3118 3120 3120 3121 3123 3123 3124 3124 3124 3125 3126 3127 3128 3128
2976 2978 2980 2983 2985 2987 2989 2992 2995 2997 2999 3002 3005 3008 3011 3014 3017 3021 3024 3026 3028 3030 3032 3034 3036 3038 3041 3043 3045 3047 3049 3051 3052 3053 3055 3057 3059 3062 3064 3067 3070 3072 3075 3077 3079 3081 3082 3082 3082 3082 3082 3082 3082 3083 3084 3087 3091 3093 3095 3097 3100 3104 3107 3110 3113 3112 3109 3109 3109 3107 3108 3111 3112 3113 3116 3118 3119 3120 3121 3122 3122 3122 3122 3123 3125 3126 3126 3126
2974 2976 2978 2981 2984 2985 2987 2990 2992 2995 2998 3001 3003 3005 3008 3011 3015 3018 3021 3023 3025 3028 3030 3031 3033 3035 3038 3040 3042 3044 3046 3048 3049 3051 3053 3054 3056 3058 3061 3064 3067 3069 3072 3074 3076 3078 3079 3079 3079 3079 3080 3081 3082 3084 3086 3088 3090 3092 3094 3095 3098 3101 3103 3106 3106 3104 3105 3107 3103 3101 3106 3109 3109 3111 3114 3115 3117 3118 3119 3120 3121 3120 3120 3121 3123 3123 3123 3123
2971 2974 2976 2979 2981 2983 2984 2987 2989 2992 2995 2998 3001 3003 3005 3009 3012 3014 3017 3020 3022 3025 3027 3028 3030 3033 3035 3038 3040 3042 3044 3045 3046 3048 3050 3052 3054 3056 3058 3061 3063 3066 3069 3071 3073 3074 3075 3075 3076 3078 3079 3080 3082 3084 3085 3087 3089 3091 3092 3093 3095 3098 3099 3100 3100 3100 3102 3101 3097 3097 3103 3106 3106 3110 3113 3113 3115 3117 3118 3118 3118 3118 3119 3119 3119 3119 3119 3119
2969 2971 2974 2977 2979 2981 2983 2985 2987 2990 2993 2995 2998 3000 3002 3005 3008 3011 3015 3017 3019 3021 3024 3025 3028 3030 3033 3035 3038 3039 3041 3042 3043 3044 3047 3049 3051 3053 3055 3058 3060 3063 3066 3068 3069 3071 3072 3073 3074 3076 3077 3078 3080 3081 3083 3084 3086 3087 3089 3091 3093 3094 3095 3095 3096 3096 3097 3097 3096 3098 3100 3100 3103 3108 3110 3112 3114 3114 3114 3115 3115 3115 3116 3115 3115 3115 3115 3115
2967 2969 2972 2975 2977 2979 2982 2984 2986 2989 2991 2993 2995 2997 3000 3003 3005 3009 3012 3014 3016 3018 3020 3022 3025 3028 3031 3033 3035 3037 3039 3041 3041 3042 3045 3047 3049 3051 3053 3055 3057 3059 3062 3064 3066 3068 3069 3070 3071 3073 3074 3075 3076 3078 3079 3081 3082 3083 3085 3088 3089 3090 3091 3090 3090 3092 3093 3093 3095 3097 3096 3095 3098 3103 3107 3109 3110 3110 3110 3110 3110 3111 3110 3110 3110 3110 3110 3110
2965 2967 2970 2972 2974 2977 2979 2982 2985 2987 2989 2991 2992 2995 2997 3000 3003 3006 3009 3011 3013 3016 3019 3021 3023 3026 3029 3030 3032 3035 3038 3039 3039 3041 3043 3045 3047 3049 3051 3052 3054 3056 3058 3060 3062 3064 3066 3067 3068 3070 3071 3071 3072 3074 3075 3077 3079 3080 3081 3082 3083 3083 3083 3083 3085 3088 3090 3091 3093 3094 3092 3090 3092 3098 3102 3104 3104 3105 3106 3106 3106 3106 3105 3105 3105 3104 3104 3104
2963 2965 2968 2971 2972 2974 2977 2979 2983 2985 2986 2988 2990 2993 2995 2998 3001 3004 3006 3008 3011 3014 3017 3019 3021 3024 3026 3027 3030 3034 3036 3036 3037 3039 3041 3043 3045 3046 3048 3049 3051 3053 3055 3057 3059 3060 3062 3063 3064 3066 3067 3067 3069 3070 3072 3075 3077 3075 3073 3074 3076 3077 3078 3080 3082 3084 3086 3087 3088 3088 3087 3087 3089 3093 3096 3098 3099 3101 3101 3101 3101 3101 3100 3100 3099 3099 3098 3098